GW2145 Weather Reports


time (UTC)temp
C
wind
direction
speed
KPH
gust
KPH
rain 1hr
cm
rain 24hr
cm
rain mn
cm
humidity
%
barometer
mb
20260906222339 25 212 6.4 12.9 0.00 0.00 0.00 29 917.7
20260906221351 24 241 4.8 14.5 0.00 0.00 0.00 29 917.8
20260906220554 25 278 6.4 17.7 0.00 0.00 0.00 27 917.8
20260906215350 25 202 6.4 14.5 0.00 0.00 0.00 28 917.8
20260906214845 25 127 3.2 12.9 0.00 0.00 0.00 27 918.1
20260906213853 23 174 3.2 9.7 0.00 0.00 0.00 28 918.3
20260906212854 24 182 3.2 11.3 0.00 0.00 0.00 29 918.4
20260906211855 24 51 3.2 11.3 0.00 0.00 0.00 28 918.5
20260906210835 23 198 3.2 12.9 0.00 0.00 0.00 29 918.8
20260906205846 23 201 8.0 17.7 0.00 0.00 0.00 26 918.9
20260906204854 24 210 8.0 16.1 0.00 0.00 0.00 28 919.1
20260906204335 23 229 1.6 12.9 0.00 0.00 0.00 28 919.1
20260906203343 24 213 8.0 12.9 0.00 0.00 0.00 28 919.2
20260906202344 24 217 9.7 17.7 0.00 0.00 0.00 29 919.2
20260906201841 23 288 8.0 19.3 0.00 0.00 0.00 31 919.3
20260906200843 23 232 6.4 20.9 0.00 0.00 0.00 32 919.3
20260906195853 23 249 8.0 17.7 0.00 0.00 0.00 31 919.7
20260906194853 23 219 6.4 16.1 0.00 0.00 0.00 33 919.5
20260906193842 23 226 4.8 14.5 0.00 0.00 0.00 33 919.7
20260906192850 23 198 6.4 16.1 0.00 0.00 0.00 34 919.8
20260906191846 23 250 4.8 14.5 0.00 0.00 0.00 33 919.7
20260906190855 23 308 6.4 16.1 0.00 0.00 0.00 34 920.0
20260906185850 22 236 4.8 17.7 0.00 0.00 0.00 33 919.9
20260906185339 22 153 6.4 14.5 0.00 0.00 0.00 34 920.3
20260906184336 22 298 4.8 17.7 0.00 0.00 0.00 34 920.3
20260906183341 22 167 1.6 14.5 0.00 0.00 0.00 34 920.4
20260906182345 22 232 4.8 14.5 0.00 0.00 0.00 35 920.7
20260906181347 21 267 4.8 11.3 0.00 0.00 0.00 34 920.8
20260906180349 22 210 4.8 14.5 0.00 0.00 0.00 36 921.2
20260906175351 21 196 6.4 12.9 0.00 0.00 0.00 36 921.3
20260906174355 21 229 4.8 11.3 0.00 0.00 0.00 36 921.3
20260906173834 21 219 4.8 12.9 0.00 0.00 0.00 37 921.4
20260906172858 20 164 1.6 11.3 0.00 0.00 0.00 37 921.4
20260906171839 21 259 6.4 12.9 0.00 0.00 0.00 36 921.6
20260906171338 21 224 1.6 6.4 0.00 0.00 0.00 38 921.6
20260906170342 21 230 6.4 16.1 0.00 0.00 0.00 37 921.6
20260906165340 20 279 3.2 9.7 0.00 0.00 0.00 38 921.9
20260906164346 20 259 4.8 12.9 0.00 0.00 0.00 39 921.8
20260906163348 20 244 4.8 9.7 0.00 0.00 0.00 38 921.9
20260906162350 20 210 4.8 9.7 0.00 0.00 0.00 38 921.8
20260906161353 20 257 3.2 8.0 0.00 0.00 0.00 38 921.9
20260906160839 19 298 3.2 8.0 0.00 0.00 0.00 38 922.1
20260906160335 19 276 3.2 8.0 0.00 0.00 0.00 38 922.0
20260906155337 19 221 1.6 6.4 0.00 0.00 0.00 44 921.8
20260906154341 18 187 0.0 8.0 0.00 0.00 0.00 44 921.8
20260906153340 17 225 1.6 4.8 0.00 0.00 0.00 48 921.9
20260906152840 17 219 1.6 6.4 0.00 0.00 0.00 48 921.9
20260906151843 17 199 3.2 8.0 0.00 0.00 0.00 48 922.0
20260906150844 17 188 1.6 3.2 0.00 0.00 0.00 48 922.0
20260906145845 16 172 0.0 3.2 0.00 0.00 0.00 49 922.0
20260906144850 16 108 0.0 1.6 0.00 0.00 0.00 51 921.9
20260906143851 15 108 0.0 0.0 0.00 0.00 0.00 57 921.8
20260906143339 14 108 0.0 1.6 0.00 0.00 0.00 58 921.8
20260906142339 12 347 0.0 1.6 0.00 0.00 0.00 59 922.0
20260906141339 11 347 0.0 1.6 0.00 0.00 0.00 59 922.0
20260906140348 11 1 0.0 3.2 0.00 0.00 0.00 63 922.2
20260906135345 11 2 0.0 3.2 0.00 0.00 0.00 62 922.1
20260906134350 9 11 0.0 4.8 0.00 0.00 0.00 66 922.1
20260906133350 8 293 0.0 1.6 0.00 0.00 0.00 71 921.9
20260906132351 9 23 0.0 1.6 0.00 0.00 0.00 68 921.9
20260906131352 9 23 0.0 3.2 0.00 0.00 0.00 67 921.8
20260906130354 9 23 0.0 1.6 0.00 0.00 0.00 66 921.8
20260906125336 10 40 0.0 1.6 0.00 0.00 0.00 65 921.6
20260906124338 9 40 0.0 3.2 0.00 0.00 0.00 67 921.6
20260906123340 9 347 0.0 1.6 0.00 0.00 0.00 67 921.7
20260906122340 9 345 0.0 1.6 0.00 0.00 0.00 68 921.6
20260906121349 9 345 0.0 1.6 0.00 0.00 0.00 70 921.4
20260906120348 9 345 1.6 3.2 0.00 0.00 0.00 70 921.6
20260906115335 8 13 1.6 3.2 0.00 0.00 0.00 72 921.7
20260906114337 8 332 1.6 3.2 0.00 0.00 0.00 72 921.9
20260906113340 8 331 1.6 3.2 0.00 0.00 0.00 71 921.9
20260906112838 8 346 1.6 3.2 0.00 0.00 0.00 71 921.9
20260906111845 8 346 0.0 3.2 0.00 0.00 0.00 70 921.8
20260906110847 9 335 0.0 3.2 0.00 0.00 0.00 69 921.8
20260906105849 9 348 1.6 4.8 0.00 0.00 0.00 69 921.7
20260906104851 9 346 0.0 4.8 0.00 0.00 0.00 69 921.8
20260906103837 8 342 3.2 4.8 0.00 0.00 0.00 70 921.7
20260906102840 8 354 1.6 4.8 0.00 0.00 0.00 70 921.6
20260906101850 9 330 1.6 4.8 0.00 0.00 0.00 68 921.6
20260906100834 9 330 3.2 6.4 0.00 0.00 0.00 68 921.6
20260906095842 9 348 1.6 3.2 0.00 0.00 0.00 67 921.5
20260906094844 9 8 3.2 4.8 0.00 0.00 0.00 67 921.5
20260906093851 9 333 1.6 6.4 0.00 0.00 0.00 67 921.5
20260906092851 10 356 0.0 4.8 0.00 0.00 0.00 67 921.5
20260906091835 9 333 1.6 4.8 0.00 0.00 0.00 67 921.3
20260906090839 9 333 0.0 1.6 0.00 0.00 0.00 67 921.3
20260906085840 10 333 1.6 3.2 0.00 0.00 0.00 65 921.4
20260906084842 10 333 0.0 1.6 0.00 0.00 0.00 67 921.3
20260906083847 10 333 0.0 3.2 0.00 0.00 0.00 66 921.3
20260906082848 10 3 0.0 4.8 0.00 0.00 0.00 66 921.3
20260906082344 10 340 1.6 6.4 0.00 0.00 0.00 66 921.2
20260906081352 10 330 0.0 6.4 0.00 0.00 0.00 67 921.4
20260906080848 10 319 3.2 6.4 0.00 0.00 0.00 67 921.2
20260906075850 10 360 0.0 3.2 0.00 0.00 0.00 67 921.3
20260906074854 10 41 0.0 0.0 0.00 0.00 0.00 65 921.4
20260906073835 10 41 0.0 1.6 0.00 0.00 0.00 64 921.4
20260906072838 11 41 0.0 1.6 0.00 0.00 0.00 64 921.1
20260906071840 11 354 0.0 1.6 0.00 0.00 0.00 62 921.1
20260906070845 11 327 1.6 4.8 0.00 0.00 0.00 63 921.1
20260906065846 11 25 0.0 1.6 0.00 0.00 0.00 61 921.1
20260906064847 11 25 0.0 1.6 0.00 0.00 0.00 62 921.1
20260906063848 11 25 0.0 3.2 0.00 0.00 0.00 64 921.0
20260906062854 11 262 1.6 3.2 0.00 0.00 0.00 66 921.1
20260906061836 11 326 0.0 1.6 0.00 0.00 0.00 61 920.9
20260906060837 12 322 1.6 6.4 0.00 0.00 0.00 61 920.8
20260906055847 12 328 1.6 4.8 0.00 0.00 0.00 60 920.9
20260906054845 12 338 1.6 4.8 0.00 0.00 0.00 60 921.0
20260906053847 12 329 3.2 4.8 0.00 0.00 0.00 60 921.0
20260906052851 12 3 1.6 3.2 0.00 0.00 0.00 61 921.0
20260906052338 12 359 1.6 4.8 0.00 0.00 0.00 61 921.1
20260906051342 12 3 3.2 6.4 0.00 0.00 0.00 60 921.1
20260906050344 12 347 1.6 4.8 0.00 0.00 0.00 60 921.0
20260906045537 12 63 0.0 1.6 0.00 0.00 0.00 60 921.0
20260906044337 12 5 0.0 3.2 0.00 0.00 0.00 60 921.1
20260906043337 12 343 1.6 3.2 0.00 0.00 0.00 60 921.1
20260906042338 12 350 0.0 3.2 0.00 0.00 0.00 60 921.1
20260906041340 12 340 1.6 4.8 0.00 0.00 0.00 61 921.1
20260906040343 12 343 1.6 3.2 0.00 0.00 0.00 60 921.0
20260906035346 13 341 1.6 4.8 0.00 0.00 0.00 59 921.0
20260906034347 13 357 0.0 1.6 0.00 0.00 0.00 58 921.0
20260906033349 14 358 0.0 1.6 0.00 0.00 0.00 56 920.8
20260906032349 15 4 0.0 3.2 0.00 0.00 0.00 56 920.9
20260906031348 15 356 0.0 3.2 0.00 0.00 0.00 55 920.7
20260906030352 15 146 0.0 0.0 0.00 0.00 0.00 55 920.8
20260906025838 15 147 0.0 1.6 0.00 0.00 0.00 55 920.8
20260906024850 15 146 0.0 1.6 0.00 0.00 0.00 54 920.7
20260906023835 15 147 0.0 0.0 0.00 0.00 0.00 55 920.6
20260906022839 15 147 0.0 0.0 0.00 0.00 0.00 54 920.6
20260906021844 15 147 0.0 3.2 0.00 0.00 0.00 53 920.5
20260906020845 16 40 0.0 1.6 0.00 0.00 0.00 53 920.4
20260906015848 16 40 0.0 3.2 0.00 0.00 0.00 52 920.4
20260906015341 16 302 0.0 3.2 0.00 0.00 0.00 52 920.3
20260906014349 16 265 0.0 1.6 0.00 0.00 0.00 52 920.3
20260906013350 16 117 0.0 8.0 0.00 0.00 0.00 50 920.2
20260906012357 17 115 3.2 12.9 0.00 0.00 0.00 49 920.3
20260906011341 18 146 0.0 9.7 0.00 0.00 0.00 46 920.0
20260906005353 18 111 3.2 9.7 0.00 0.00 0.00 44 920.1
20260906004339 18 104 6.4 12.9 0.00 0.00 0.00 43 920.1
20260906003342 19 77 4.8 11.3 0.00 0.00 0.00 42 920.0
20260906002342 20 120 6.4 12.9 0.00 0.00 0.00 41 919.9
20260906001345 21 103 4.8 9.7 0.00 0.00 0.00 38 919.9
20260906000349 21 126 0.0 4.8 0.00 0.00 0.00 32 919.9
20260905235334 21 220 0.0 3.2 0.00 0.00 0.00 33 919.8
20260905234338 21 223 0.0 9.7 0.00 0.00 0.00 34 919.7
20260905233341 21 270 3.2 6.4 0.00 0.00 0.00 33 919.4
20260905232838 21 285 3.2 8.0 0.00 0.00 0.00 33 919.3
20260905231839 21 243 4.8 9.7 0.00 0.00 0.00 33 919.2
20260905230849 21 251 3.2 11.3 0.00 0.00 0.00 34 919.3
20260905230340 21 274 3.2 6.4 0.00 0.00 0.00 34 919.3
20260905225839 21 276 3.2 6.4 0.00 0.00 0.00 34 919.2
20260905224841 21 221 3.2 11.3 0.00 0.00 0.00 33 919.4
20260905223842 21 245 3.2 8.0 0.00 0.00 0.00 34 919.4
20260905222847 22 213 4.8 8.0 0.00 0.00 0.00 34 919.6